カタログに戻る

STARLINK-37136

運用中通信VLEO
NORAD 68347·PAYLOAD·🇺🇸 United States

打ち上げ Mar 22, 2026 から Cape Canaveral Space Force Station

Loading…

次のパス (今後24時間)

TLE

最新Source: CelesTrak SupGP

元期: Sep 14, 2026, 21:08 UTC

1 68347C 26059AC  26257.88104167  .00006032  00000+0  17816-3 0  2570
2 68347  53.1588 187.6417 0001381  90.0840  53.1120 15.34397208    13

AllMySatでSTARLINK-37136をリアルタイム追跡

Download on the App Store